FW5810 Weather Reports


time (UTC)temp
F
wind
direction
speed
knots
gust
knots
rain 1hr
in
rain 24hr
in
rain mn
in
humidity
%
barometer
mb
20260831195409 86 286 0.9 0.9 0.00 0.01 0.01 59 1019.7
20260831194904 86 31 0.9 4.3 0.00 0.01 0.01 58 1019.7
20260831194400 86 61 0.0 0.9 0.00 0.01 0.01 58 1019.7
20260831193859 87 286 0.9 2.6 0.00 0.01 0.01 56 1019.7
20260831193354 89 342 1.7 7.0 0.00 0.01 0.01 55 1019.7
20260831192849 89 111 2.6 2.6 0.00 0.01 0.01 53 1019.7
20260831192344 87 357 0.0 2.6 0.00 0.01 0.01 55 1019.8
20260831191839 88 284 5.2 7.0 0.00 0.01 0.01 54 1019.7
20260831191335 88 285 3.5 7.0 0.00 0.01 0.01 54 1019.9
20260831190831 88 241 7.0 15.6 0.00 0.01 0.01 54 1019.9
20260831190326 88 186 7.0 7.0 0.00 0.01 0.01 52 1020.1
20260831185825 87 227 4.3 9.6 0.00 0.01 0.01 54 1020.3
20260831185321 87 268 2.6 6.1 0.00 0.01 0.01 55 1020.2
20260831184820 86 238 3.5 4.3 0.00 0.01 0.01 56 1020.2
20260831184316 86 266 3.5 7.0 0.00 0.01 0.01 58 1020.2
20260831183811 86 271 2.6 4.3 0.00 0.01 0.01 59 1020.3
20260831183310 86 119 1.7 4.3 0.00 0.01 0.01 60 1020.4
20260831182809 85 252 3.5 9.6 0.00 0.01 0.01 58 1020.4
20260831182305 85 248 1.7 2.6 0.00 0.01 0.01 64 1020.4
20260831181759 85 227 3.5 6.1 0.00 0.01 0.01 62 1020.4
20260831181254 86 173 2.6 3.5 0.00 0.01 0.01 60 1020.2
20260831180749 86 248 3.5 4.3 0.00 0.01 0.01 60 1020.3
20260831180244 86 254 1.7 3.5 0.00 0.01 0.01 59 1020.3
20260831175743 86 304 3.5 9.6 0.00 0.01 0.01 58 1020.4
20260831175240 86 289 1.7 3.5 0.00 0.01 0.01 59 1020.4
20260831174735 87 2 3.5 7.0 0.00 0.01 0.01 57 1020.3
20260831174231 86 321 1.7 2.6 0.00 0.01 0.01 59 1020.6
20260831173729 85 233 0.9 4.3 0.00 0.01 0.01 57 1020.3
20260831173229 86 268 4.3 6.1 0.00 0.01 0.01 55 1020.4
20260831172725 85 275 2.6 4.3 0.00 0.01 0.01 55 1020.5
20260831172220 85 312 2.6 7.0 0.00 0.01 0.01 57 1020.4
20260831171714 85 260 3.5 6.1 0.00 0.01 0.01 57 1020.5
20260831171212 85 206 2.6 6.1 0.00 0.01 0.01 56 1020.5
20260831170708 86 272 2.6 3.5 0.00 0.01 0.01 54 1020.5
20260831170205 86 301 1.7 3.5 0.00 0.01 0.01 54 1020.8
20260831165700 87 243 2.6 4.3 0.00 0.01 0.01 52 1020.5
20260831165156 87 351 1.7 3.5 0.00 0.01 0.01 51 1020.7
20260831164652 86 359 2.6 3.5 0.00 0.01 0.01 57 1020.5
20260831164148 86 262 6.1 7.0 0.00 0.01 0.01 58 1020.7
20260831163643 86 249 4.3 3.5 0.00 0.01 0.01 59 1020.5
20260831163139 84 298 0.9 0.9 0.00 0.01 0.01 63 1020.7
20260831162638 84 240 0.9 6.1 0.00 0.01 0.01 59 1020.6
20260831162136 85 234 4.3 6.1 0.00 0.01 0.01 58 1020.7
20260831161632 84 53 0.0 3.5 0.00 0.01 0.01 59 1020.8
20260831161129 85 352 0.9 9.6 0.00 0.01 0.01 60 1020.6
20260831160627 84 98 0.0 2.6 0.00 0.01 0.01 63 1020.6
20260831160122 83 331 0.9 7.0 0.00 0.01 0.01 64 1020.6
20260831155617 84 247 2.6 4.3 0.00 0.01 0.01 63 1020.7
20260831155112 83 0 4.3 6.1 0.00 0.01 0.01 65 1020.8
20260831154608 83 201 2.6 4.3 0.00 0.01 0.01 64 1020.6
20260831154108 83 237 2.6 6.1 0.00 0.01 0.01 67 1020.9
20260831153607 82 221 3.5 8.7 0.00 0.01 0.01 67 1020.6
20260831153104 82 211 2.6 6.1 0.00 0.01 0.01 68 1020.7
20260831152559 83 144 1.7 2.6 0.00 0.01 0.01 66 1020.8
20260831152055 84 238 5.2 7.0 0.00 0.01 0.01 65 1020.8
20260831151554 82 205 1.7 3.5 0.00 0.01 0.01 68 1020.9
20260831151049 81 220 3.5 8.7 0.00 0.01 0.01 70 1020.7
20260831150544 81 270 4.3 6.1 0.00 0.01 0.01 73 1020.7
20260831150040 81 227 6.1 7.0 0.00 0.01 0.01 71 1020.8
20260831145534 80 147 4.3 6.1 0.00 0.01 0.01 77 1020.9
20260831145030 79 241 1.7 4.3 0.00 0.01 0.01 79 1020.8
20260831144526 77 218 3.5 3.5 0.00 0.01 0.01 81 1021.0
20260831144021 76 247 0.9 4.3 0.00 0.01 0.01 84 1020.9
20260831143516 76 262 0.0 2.6 0.00 0.01 0.01 85 1021.1
20260831143011 76 247 1.7 4.3 0.00 0.01 0.01 85 1021.0
20260831142508 76 281 2.6 2.6 0.00 0.01 0.01 86 1020.9
20260831142002 75 288 2.6 3.5 0.00 0.01 0.01 86 1020.9
20260831141456 75 258 1.7 4.3 0.00 0.01 0.01 86 1020.8
20260831140951 76 276 1.7 3.5 0.00 0.01 0.01 85 1020.9
20260831140450 75 218 1.7 2.6 0.00 0.01 0.01 86 1020.7
20260831135949 75 252 2.6 3.5 0.00 0.01 0.01 86 1020.8
20260831135448 75 259 0.9 0.9 0.00 0.01 0.01 87 1020.6
20260831134943 74 234 0.9 0.9 0.00 0.01 0.01 88 1020.7
20260831134435 74 237 0.9 2.6 0.00 0.01 0.01 88 1020.7
20260831133934 73 181 2.6 2.6 0.00 0.01 0.01 90 1020.8
20260831133434 73 143 3.5 3.5 0.00 0.01 0.01 90 1020.9
20260831132930 72 144 0.9 0.9 0.00 0.01 0.01 92 1021.1
20260831132425 72 136 0.0 0.9 0.00 0.01 0.01 93 1021.0
20260831131924 71 135 0.0 2.6 0.00 0.01 0.01 94 1020.9
20260831131420 71 136 0.0 0.0 0.00 0.01 0.01 94 1020.8
20260831130916 71 137 0.0 0.0 0.00 0.01 0.01 94 1020.7
20260831130411 70 130 0.9 3.5 0.00 0.01 0.01 94 1020.8
20260831125910 70 112 1.7 2.6 0.00 0.01 0.01 94 1020.8
20260831125405 70 111 0.0 2.6 0.00 0.01 0.01 94 1020.9
20260831124901 70 108 1.7 0.9 0.00 0.01 0.01 94 1020.8
20260831124356 70 107 0.0 0.0 0.00 0.01 0.01 94 1020.9
20260831123851 70 107 0.0 0.0 0.00 0.01 0.01 94 1020.8
20260831123350 70 108 0.9 2.6 0.00 0.01 0.01 94 1020.7
20260831122845 70 102 1.7 2.6 0.00 0.01 0.01 94 1020.7
20260831122340 70 101 0.0 2.6 0.00 0.01 0.01 94 1020.8
20260831121840 70 60 0.9 0.9 0.00 0.01 0.01 94 1020.9
20260831121337 70 73 0.9 0.0 0.00 0.01 0.01 94 1020.8
20260831120832 70 73 0.9 0.9 0.00 0.01 0.01 94 1020.9
20260831120326 70 28 0.0 0.9 0.00 0.01 0.01 94 1020.9
20260831115821 69 268 1.7 3.5 0.00 0.01 0.01 95 1020.9
20260831115318 69 221 2.6 2.6 0.05 0.01 0.01 95 1020.9
20260831114817 69 99 0.0 3.5 0.05 0.01 0.01 95 1021.0
20260831114315 69 121 0.9 2.6 0.00 0.00 0.00 95 1020.9
20260831113811 69 16 0.9 0.9 0.00 0.00 0.00 95 1021.1
20260831113306 69 19 0.0 0.0 0.00 0.00 0.00 95 1021.0
20260831112800 69 20 0.0 0.0 0.00 0.00 0.00 95 1021.0
20260831112255 69 20 0.0 0.0 0.00 0.00 0.00 95 1020.9
20260831111750 69 19 0.0 0.9 0.00 0.00 0.00 95 1020.7
20260831111247 69 20 0.0 0.9 0.00 0.00 0.00 94 1020.5
20260831110743 69 27 0.0 0.0 0.00 0.00 0.00 94 1020.6
20260831110237 69 27 0.0 0.0 0.00 0.00 0.00 94 1020.7
20260831105736 69 27 0.0 0.0 0.00 0.00 0.00 93 1020.4
20260831105232 69 27 0.0 0.0 0.00 0.00 0.00 93 1020.4
20260831104726 69 27 0.0 0.0 0.00 0.00 0.00 93 1020.3
20260831104224 69 27 0.0 0.0 0.00 0.00 0.00 93 1020.3
20260831103723 69 27 0.0 0.0 0.00 0.00 0.00 93 1020.4
20260831103219 69 322 0.0 0.9 0.00 0.00 0.00 93 1020.3
20260831102718 69 348 0.0 0.0 0.00 0.00 0.00 93 1020.3
20260831102214 69 352 0.0 0.9 0.00 0.00 0.00 93 1020.2
20260831101709 69 66 0.9 0.9 0.00 0.00 0.00 93 1020.3
20260831101204 69 118 0.0 0.9 0.00 0.00 0.00 93 1020.2
20260831100700 69 118 0.9 0.9 0.00 0.00 0.00 93 1020.3
20260831100156 69 121 0.0 0.9 0.00 0.00 0.00 93 1020.1
20260831095654 69 116 2.6 3.5 0.00 0.00 0.00 93 1020.1
20260831095149 69 120 0.0 0.9 0.00 0.00 0.00 93 1020.1
20260831094644 69 98 0.0 2.6 0.00 0.00 0.00 94 1019.9
20260831094140 69 137 0.9 0.9 0.00 0.00 0.00 93 1019.9
20260831093636 69 136 0.0 0.9 0.00 0.00 0.00 93 1020.1
20260831093132 69 131 0.0 0.9 0.00 0.00 0.00 94 1020.2
20260831092628 69 112 0.0 0.9 0.00 0.00 0.00 94 1020.3
20260831092123 69 213 0.0 0.9 0.00 0.00 0.00 94 1020.2
20260831091623 69 213 0.0 0.9 0.00 0.00 0.00 94 1020.2
20260831091118 69 212 0.0 0.0 0.00 0.00 0.00 94 1020.2
20260831090614 69 208 0.0 0.9 0.00 0.00 0.00 94 1020.3
20260831090110 69 208 1.7 2.6 0.00 0.00 0.00 94 1020.3
20260831085605 69 149 0.9 0.9 0.00 0.00 0.00 94 1020.1
20260831085100 69 149 1.7 2.6 0.00 0.00 0.00 94 1020.3
20260831084556 69 142 0.0 0.9 0.00 0.00 0.00 94 1020.1
20260831084052 69 125 0.0 0.0 0.00 0.00 0.00 94 1020.2
20260831083547 69 125 0.0 0.0 0.00 0.00 0.00 94 1020.2
20260831083042 69 125 0.0 0.9 0.00 0.00 0.00 93 1019.9
20260831082535 69 126 0.0 0.9 0.00 0.00 0.00 93 1019.9
20260831082031 69 119 0.9 3.5 0.00 0.00 0.00 93 1020.2
20260831081527 69 107 1.7 2.6 0.00 0.00 0.00 94 1020.2
20260831081022 69 129 1.7 0.9 0.00 0.00 0.00 94 1020.2
20260831080516 69 128 0.0 0.9 0.00 0.00 0.00 95 1020.4
20260831080012 68 128 2.6 2.6 0.00 0.00 0.00 95 1020.2
20260831075507 68 128 0.0 0.9 0.00 0.00 0.00 95 1020.2
20260831075003 68 128 0.0 0.9 0.00 0.00 0.00 95 1020.2
20260831074502 68 128 0.0 0.9 0.00 0.00 0.00 95 1020.2
20260831073957 68 128 0.0 0.0 0.00 0.00 0.00 95 1020.1
20260831073456 69 128 0.0 0.9 0.00 0.00 0.00 95 1019.9
20260831072955 69 128 0.9 2.6 0.00 0.00 0.00 95 1020.3
20260831072452 69 126 0.0 0.0 0.00 0.00 0.00 95 1020.4
20260831071948 69 126 0.9 0.9 0.00 0.00 0.00 95 1020.3
20260831071447 69 126 0.9 0.9 0.00 0.00 0.00 95 1020.2
20260831070942 69 126 1.7 2.6 0.00 0.00 0.00 95 1020.3
20260831070441 69 154 0.0 0.0 0.00 0.00 0.00 95 1020.4
20260831065941 69 154 0.0 0.0 0.00 0.00 0.00 95 1020.6
20260831065439 69 155 0.0 0.0 0.00 0.00 0.00 95 1020.6
20260831064934 69 139 0.0 0.9 0.00 0.00 0.00 95 1020.4
20260831064429 69 135 0.0 2.6 0.00 0.00 0.00 95 1020.5
20260831063925 69 141 0.9 0.9 0.00 0.00 0.00 95 1020.5
20260831063420 69 141 0.0 2.6 0.00 0.00 0.00 95 1020.7
20260831062919 69 122 0.0 0.9 0.00 0.00 0.00 96 1020.6
20260831062415 69 122 0.0 0.0 0.00 0.00 0.00 96 1020.6
20260831061914 69 122 0.9 0.9 0.00 0.00 0.00 96 1020.8
20260831061413 69 122 0.0 0.9 0.00 0.00 0.00 96 1020.8
20260831060909 69 121 0.0 0.9 0.00 0.00 0.00 96 1020.7
20260831060404 69 121 0.9 0.9 0.00 0.00 0.00 96 1020.8
20260831055904 69 113 1.7 2.6 0.00 0.00 0.00 96 1020.8
20260831055359 69 107 1.7 2.6 0.00 0.00 0.00 96 1020.7
20260831054854 69 105 1.7 0.9 0.00 0.00 0.00 96 1020.8
20260831054349 69 103 1.7 0.9 0.00 0.00 0.00 96 1020.9
20260831053848 69 112 2.6 2.6 0.00 0.00 0.00 96 1021.0
20260831053346 69 122 0.9 0.9 0.00 0.00 0.00 96 1021.2
20260831052841 69 122 0.0 0.9 0.00 0.00 0.00 96 1021.1
20260831052340 69 78 0.9 2.6 0.00 0.00 0.00 96 1021.2
20260831051839 69 55 0.0 0.0 0.00 0.00 0.00 96 1021.3
20260831051337 69 55 0.0 0.0 0.00 0.00 0.00 95 1021.2
20260831050832 69 55 0.0 0.9 0.00 0.00 0.00 95 1021.2
20260831050332 69 70 2.6 2.6 0.00 0.00 0.00 95 1021.2
20260831045826 69 20 0.0 0.9 0.00 0.00 0.00 95 1021.3
20260831045320 70 20 1.7 2.6 0.00 0.00 0.00 95 1021.3
20260831044815 70 56 1.7 0.9 0.00 0.00 0.00 94 1021.2
20260831044310 70 131 0.0 0.9 0.00 0.00 0.00 94 1021.1
20260831043807 70 52 0.9 0.9 0.00 0.00 0.00 94 1021.2
20260831043306 70 49 1.7 2.6 0.00 0.00 0.00 95 1021.3
20260831042801 70 11 3.5 3.5 0.00 0.00 0.00 95 1021.0
20260831042300 70 349 2.6 3.5 0.00 0.00 0.00 95 1021.2
20260831041756 69 106 0.0 2.6 0.00 0.00 0.00 95 1021.0
20260831041255 69 133 2.6 3.5 0.00 0.00 0.00 95 1020.9
20260831040750 69 116 2.6 2.6 0.00 0.00 0.00 95 1021.0
20260831040249 69 112 0.9 0.9 0.00 0.00 0.00 95 1021.0
20260831035748 69 135 2.6 3.5 0.00 0.00 0.00 95 1021.2
20260831035247 69 127 0.0 0.0 0.00 0.00 0.00 94 1021.1
20260831034746 69 127 0.9 0.9 0.00 0.00 0.00 94 1021.4
20260831034242 69 127 0.0 0.0 0.00 0.00 0.00 94 1021.3
20260831033738 69 127 0.9 0.9 0.00 0.00 0.00 94 1021.4
20260831033237 69 127 0.9 0.9 0.00 0.00 0.00 94 1021.3
20260831032732 69 127 0.0 0.9 0.00 0.00 0.00 94 1021.5
20260831032227 69 127 0.0 0.9 0.00 0.00 0.00 94 1021.6
20260831031722 69 127 0.9 0.9 0.00 0.00 0.00 94 1021.4
20260831031217 69 125 0.9 0.9 0.00 0.00 0.00 93 1021.4
20260831030716 70 126 0.0 0.9 0.00 0.00 0.00 93 1021.5
20260831030214 70 112 0.0 0.9 0.00 0.00 0.00 93 1021.4
20260831025708 70 120 0.0 2.6 0.00 0.00 0.00 93 1021.5
20260831025203 70 119 0.9 0.9 0.00 0.00 0.00 92 1021.6
20260831024659 70 130 1.7 6.1 0.00 0.00 0.00 92 1021.7
20260831024157 70 124 0.9 3.5 0.00 0.00 0.00 92 1021.7
20260831023655 70 83 0.0 0.0 0.00 0.00 0.00 92 1021.9
20260831023149 70 83 0.0 0.0 0.00 0.00 0.00 92 1021.9
20260831022644 70 94 1.7 2.6 0.00 0.00 0.00 92 1021.9
20260831022134 70 110 0.9 2.6 0.00 0.00 0.00 92 1022.1
20260831021633 70 105 0.9 0.9 0.00 0.00 0.00 92 1021.8
20260831021128 70 100 0.0 0.0 0.00 0.00 0.00 93 1021.9
20260831020624 70 99 1.7 3.5 0.00 0.00 0.00 92 1021.9
20260831020119 71 112 1.7 0.9 0.00 0.00 0.00 92 1022.0
20260831015614 71 98 0.0 0.9 0.00 0.00 0.00 92 1022.2
20260831015108 71 56 0.9 2.6 0.00 0.00 0.00 91 1022.2
20260831014603 71 63 1.7 0.9 0.00 0.00 0.00 91 1022.2
20260831014059 71 68 1.7 3.5 0.00 0.00 0.00 91 1022.1
20260831013555 71 66 0.0 0.9 0.00 0.00 0.00 91 1022.2
20260831013054 71 68 0.0 0.9 0.00 0.00 0.00 92 1022.2
20260831012554 71 68 0.9 0.9 0.00 0.00 0.00 91 1022.2
20260831012049 71 62 0.0 0.0 0.00 0.00 0.00 92 1022.1
20260831011549 71 46 0.0 0.0 0.00 0.00 0.00 92 1022.1
20260831011044 71 47 0.9 0.9 0.00 0.00 0.00 91 1022.2
20260831010539 71 47 0.0 0.0 0.00 0.00 0.00 91 1022.2
20260831010036 71 46 0.0 0.0 0.00 0.00 0.00 91 1022.0
20260831005531 71 46 0.0 0.0 0.00 0.00 0.00 90 1022.1
20260831005030 72 46 0.0 0.9 0.00 0.00 0.00 90 1022.1
20260831004527 72 50 2.6 2.6 0.00 0.00 0.00 90 1022.0
20260831004022 72 22 0.0 2.6 0.00 0.00 0.00 90 1021.8
20260831003518 72 35 0.0 0.9 0.00 0.00 0.00 90 1021.8
20260831003014 72 53 0.0 2.6 0.00 0.00 0.00 90 1021.7
20260831002512 72 24 0.9 2.6 0.00 0.00 0.00 89 1021.7
20260831002008 72 58 3.5 4.3 0.00 0.00 0.00 89 1021.7
20260831001503 72 15 4.3 4.3 0.00 0.00 0.00 89 1021.4
20260831001000 73 8 2.6 2.6 0.00 0.00 0.00 89 1021.4
20260831000455 73 19 2.6 3.5 0.00 0.00 0.00 88 1021.1
20260830235953 73 27 1.7 3.5 0.00 0.00 0.00 88 1021.1
20260830235448 73 16 0.9 0.9 0.00 0.00 0.00 88 1021.0
20260830234944 73 38 0.9 2.6 0.00 0.00 0.00 87 1021.1
20260830234438 73 18 2.6 3.5 0.00 0.00 0.00 87 1020.8
20260830233934 74 26 1.7 3.5 0.00 0.00 0.00 85 1020.9
20260830233430 74 33 0.9 2.6 0.00 0.00 0.00 83 1020.6
20260830232925 74 28 1.7 2.6 0.00 0.00 0.00 81 1020.7
20260830232420 75 9 1.7 2.6 0.00 0.00 0.00 79 1020.5
20260830231917 74 28 0.0 0.0 0.00 0.00 0.00 80 1020.4
20260830231412 75 32 1.7 2.6 0.00 0.00 0.00 80 1020.5
20260830230911 75 1 0.9 0.9 0.00 0.00 0.00 78 1020.4
20260830230407 75 1 1.7 2.6 0.00 0.00 0.00 78 1020.3
20260830225906 75 5 3.5 3.5 0.00 0.00 0.00 78 1019.9
20260830225401 75 65 0.9 0.9 0.00 0.00 0.00 77 1019.8
20260830224856 75 120 1.7 2.6 0.00 0.00 0.00 78 1019.7
20260830224355 75 102 0.0 2.6 0.00 0.00 0.00 79 1019.5
20260830223852 75 127 3.5 4.3 0.00 0.00 0.00 78 1019.7
20260830223348 76 129 2.6 3.5 0.00 0.00 0.00 77 1019.8
20260830222847 76 106 0.0 0.9 0.00 0.00 0.00 79 1019.9
20260830222343 76 106 0.0 0.9 0.00 0.00 0.00 75 1020.1
20260830221838 76 106 0.9 0.9 0.00 0.00 0.00 75 1020.1
20260830221335 77 105 0.9 2.6 0.00 0.00 0.00 76 1020.1
20260830220830 77 98 1.7 0.9 0.00 0.00 0.00 72 1020.1
20260830220324 78 98 0.0 0.0 0.00 0.00 0.00 70 1020.3
20260830215822 78 98 0.0 0.0 0.00 0.00 0.00 71 1020.3
20260830215317 77 98 0.0 0.0 0.00 0.00 0.00 70 1020.2
20260830214812 78 98 0.9 0.9 0.00 0.00 0.00 73 1020.3
20260830214307 78 98 0.0 0.0 0.00 0.00 0.00 74 1020.5
20260830213806 78 98 0.0 0.0 0.00 0.00 0.00 74 1020.3
20260830213301 78 98 0.0 0.9 0.00 0.00 0.00 71 1020.3
20260830212757 78 98 0.0 0.0 0.00 0.00 0.00 74 1020.2
20260830212253 78 95 0.0 0.0 0.00 0.00 0.00 71 1020.3
20260830211752 78 95 0.0 0.0 0.00 0.00 0.00 72 1020.4
20260830211251 78 96 0.0 0.0 0.00 0.00 0.00 72 1020.5
20260830210748 78 95 0.0 0.0 0.00 0.00 0.00 73 1020.4
20260830210246 77 94 0.9 0.9 0.00 0.00 0.00 73 1020.3
20260830205744 77 125 1.7 2.6 0.00 0.00 0.00 73 1020.4
20260830205239 77 210 0.0 2.6 0.00 0.00 0.00 74 1020.5
20260830204734 77 143 1.7 2.6 0.00 0.00 0.00 74 1020.6
20260830204233 77 116 0.0 0.9 0.00 0.00 0.00 73 1020.7
20260830203729 77 115 0.9 0.9 0.00 0.00 0.00 73 1020.8
20260830203225 77 264 0.0 0.9 0.00 0.00 0.00 75 1020.6
20260830202724 77 244 1.7 2.6 0.00 0.00 0.00 75 1020.7
20260830202220 77 104 0.9 0.9 0.00 0.00 0.00 77 1020.7
20260830201719 77 104 1.7 2.6 0.00 0.00 0.00 76 1020.8
20260830201214 77 117 2.6 2.6 0.00 0.00 0.00 74 1020.8
20260830200710 77 122 0.9 0.9 0.00 0.00 0.00 75 1020.9
20260830200209 77 122 0.9 0.9 0.00 0.00 0.00 75 1021.2
20260830195704 77 105 0.9 2.6 0.00 0.00 0.00 74 1021.0